Simultaneous Nadir Overpasses (SNOs) Predictions

Prediction of SNOs between AQUA and METOP-A Satellite Orbit:

Table of predicted SNOs for the next 14.0 days since TLE Epoch: 9/14/2018
Index Date (AQUA) Time (AQUA) Lat,Lon (AQUA) SZA (AQUA ) Date (METOP-A) Time (METOP-A) Lat,Lon (METOP-A) SZA (METOP-A ) Distance(km) Time Diff (sec)
1 09/16/2018 09:51:29 74.53, 24.85 71.95 09/16/2018 09:50:53 74.54, 24.80 71.97 1.68 36
2 09/16/2018 10:40:56 -74.63,-167.77 107.93 09/16/2018 10:41:33 -74.63,-167.64 107.95 3.75 37
3 09/19/2018 05:25:40 74.54, 91.27 73.04 09/19/2018 05:25:08 74.56, 91.26 73.07 1.97 32
4 09/19/2018 06:15:06 -74.59,-101.21 106.89 09/19/2018 06:15:49 -74.60,-101.31 106.89 3.00 43
5 09/22/2018 00:59:52 74.56, 157.67 74.15 09/22/2018 00:59:24 74.58, 157.72 74.17 2.79 28
6 09/22/2018 01:49:18 -74.60, -34.79 105.80 09/22/2018 01:50:05 -74.62, -34.84 105.78 2.44 47
7 09/24/2018 20:34:04 74.58,-135.93 75.26 09/24/2018 20:33:41 74.55,-135.94 75.24 3.46 23
8 09/24/2018 21:23:30 -74.62, 31.62 104.69 09/24/2018 21:24:21 -74.64, 31.62 104.67 2.22 51
9 09/27/2018 15:18:37 -74.03, 124.19 104.25 09/27/2018 15:17:30 -73.95, 121.63 104.25 79.11 67
10 09/27/2018 16:08:15 74.56, -69.43 76.33 09/27/2018 16:07:57 74.57, -69.49 76.34 2.07 18
11 09/27/2018 16:57:42 -74.64, 98.01 103.58 09/27/2018 16:58:37 -74.66, 98.07 103.56 2.68 55




NCC Satellite Simultaneous Nadir Overpasses (SNOs) Prediction Service
